Cloud_Cover
0 0 0 5 5 5 5 16 88 34 99 100 100 67 23 77 98 96 100 100 97 38 56 98 100 100 100 82 84 95 98 44 5 68 95 100 100 99 97 73 5 5 5 5
5 0 0 0 0 5 5 26 5 80 99 100 48 89 88 26 57 99 12 5 61 100 100 100 92 78 86 86 13 5 5 28 79 98 99 100 100 97 93 5 5 5 5 24
9 7 5 9 13 5 32 84 96 98 97 100 59 100 98 99 78 9 5 74 79 78 82 91 91 65 100 99 100 91 98 100 89 76 100 100 100 100 100 24 7 62 95 100
16 68 90 48 48 7 6 5 85 100 99 85 30 85 55 66 75 22 8 23 78 92 97 74 6 5 100 100 100 100 100 100 86 97 100 100 100 100 100 100 100 100 100 98
72 8 61 62 16 5 5 5 14 68 52 64 77 6 59 43 18 92 99 99 100 96 28 5 5 50 100 100 100 100 100 70 82 97 99 100 100 100 100 100 100 100 92 90
73 36 24 11 97 91 16 40 52 94 85 97 63 63 68 52 97 90 97 71 5 15 5 5 5 5 5 23 100 100 100 100 40 96 100 100 100 100 100 100 100 30 23 97
86 73 5 6 5 5 30 62 68 21 35 39 79 46 57 61 74 98 65 41 6 32 27 5 5 5 5 18 100 100 100 98 50 90 100 100 100 100 100 100 81 64 15 82
71 92 86 22 60 74 35 56 98 31 84 95 97 92 70 79 99 74 17 5 5 5 5 5 5 5 5 21 31 29 66 27 66 100 100 100 100 100 100 91 98 65 100 85
52 43 86 100 100 100 96 70 86 76 100 100 88 97 68 38 6 5 5 5 5 5 5 5 11 68 83 91 49 89 62 85 100 100 100 100 100 100 99 100 100 100 100 100
45 73 96 100 100 100 94 84 22 100 44 55 78 13 5 5 5 5 5 5 5 5 10 89 100 100 100 45 91 100 100 100 100 100 100 100 100 100 100 98 97 100 100 100
92 51 87 43 64 64 100 96 100 88 29 47 38 6 5 15 21 24 5 5 5 66 100 100 100 100 96 99 95 97 100 99 100 100 100 99 68 93 75 98 53 47 59 95
68 94 66 78 100 65 100 94 86 35 21 7 5 5 12 39 9 5 5 5 73 88 88 88 48 98 88 100 89 50 84 90 99 93 98 94 93 98 95 6 5 5 5 12
82 53 42 65 100 100 97 18 6 5 5 5 16 5 13 43 5 5 5 9 5 23 66 63 100 100 96 100 85 99 85 91 76 100 100 100 100 100 100 100 67 66 78 5
37 57 39 100 99 61 92 46 16 5 5 5 5 5 5 5 5 5 5 5 16 10 85 100 100 100 65 100 86 80 100 100 99 100 100 100 100 100 100 100 99 100 100 66
70 76 100 93 55 78 76 8 11 45 71 49 28 16 28 5 5 5 9 40 36 98 78 96 89 63 98 80 60 85 96 100 100 100 100 100 100 100 100 100 100 100 100 100
38 99 56 48 97 91 96 89 100 83 6 5 16 8 8 5 6 45 10 90 100 100 100 96 92 69 98 85 86 82 85 100 99 100 100 100 100 100 100 100 100 100 100 100
93 75 86 100 100 100 100 100 10 5 38 9 5 5 5 11 24 8 5 50 100 100 88 100 100 100 100 84 100 96 100 100 100 100 100 100 100 100 100 100 100 100 100 88
99 100 100 100 100 100 85 5 9 5 6 5 5 10 43 82 72 68 72 87 100 100 92 100 100 100 95 79 98 90 99 100 100 100 100 100 100 100 100 100 100 100 100 100
100 97 95 100 71 18 5 5 5 5 5 14 18 19 34 95 99 24 43 100 100 100 80 63 77 5 84 100 100 99 100 100 100 100 100 100 100 100 100 100 100 100 100 100
55 16 6 5 5 5 5 5 45 5 5 7 34 18 20 58 44 92 93 100 100 98 91 84 66 79 78 98 99 100 100 100 100 100 100 100 100 100 100 100 100 100 100 100
5 5 5 5 5 22 83 21 30 14 8 51 59 15 83 100 100 95 88 85 86 100 74 100 81 92 96 90 99 100 100 100 100 100 100 100 100 100 100 100 100 100 100 100
37 5 75 28 5 5 6 5 5 42 64 52 50 100 100 100 100 100 71 95 96 100 100 100 100 87 92 94 92 79 97 100 100 100 100 100 100 100 100 100 100 100 100 100
29 58 25 36 40 62 14 31 56 95 97 96 100 100 100 100 100 100 83 93 82 88 96 95 100 99 72 68 93 92 100 100 100 100 100 100 100 100 100 100 100 100 100 100
5 28 77 87 72 69 96 72 55 5 39 98 100 100 100 100 91 76 99 99 89 91 99 100 87 96 98 99 100 100 95 100 100 100 100 100 100 97 99 100 100 100 100 100
100 100 100 90 100 52 38 31 5 32 62 84 70 100 100 100 100 95 100 100 100 80 94 96 100 100 96 98 100 97 96 100 100 100 100 85 94 100 100 100 100 100 100 100
100 100 100 100 88 8 5 40 46 69 100 75 65 87 95 98 100 100 100 100 100 100 90 99 100 100 100 90 100 100 100 100 100 100 100 100 100 100 100 100 100 100 100 100
100 100 60 15 5 5 5 8 25 48 60 93 85 87 80 90 100 100 100 100 100 100 100 100 100 99 100 99 100 100 100 100 100 100 100 100 100 100 100 100 100 100 100 100